[[{"header":{"parameterUnit":"m.s-1","parameterCategory":1,"la1":30.2991,"la2":30.254,"lo1":-89.0895,"lo2":-89.0444,"dy":0.0017,"dx":0.0017,"nx":28,"ny":28,"refTime":"2024-07-15T09:00:00:Z","depth":0,"parameterNumber":2,"parameterNumberName":"U-component_of_WINDS"},"data":[0,0,0,0,0,0,0,0,0,0,0,0,0,0,0,0,0,0,0,0,0,0,0,0,0,0,0,0,0,0,0,0,0,0,0,0,0,0,0,0,0,0,0,0,0,0,0,0,0,0,0,0,0,0,0,0,0,0,4.1413,4.1414,0,4.1502,4.1503,4.1504,4.1463,4.1461,4.1459,4.1456,4.1542,4.1546,4.1551,0,0,0,0,0,0,0,0,0,0,0,0,0,4.1199,4.1203,4.1413,4.1414,4.1415,4.1502,4.1503,4.1504,4.1463,4.1461,4.1458,4.1455,4.1541,4.1546,4.1551,0,0,0,0,0,0,0,0,0,0,0,0,0,4.129,4.1205,4.1412,4.1405,4.1405,4.1502,4.1503,4.1505,4.1464,4.1461,4.1457,4.1454,4.1539,4.1545,4.1552,4.1659,0,0,4.1572,4.1575,0,0,0,0,0,0,0,0,4.1285,4.1298,4.1405,4.1406,4.1406,4.1468,4.1459,4.1556,4.1465,4.1442,4.1456,4.1453,4.152,4.1528,4.1552,4.1663,4.1667,4.1572,4.1576,4.1579,4.1581,0,0,0,0,0,0,0,4.1279,4.1294,4.1448,4.1407,4.1407,4.1395,4.1404,4.1477,4.1498,4.1443,4.1441,4.1452,4.1519,4.1545,4.1553,4.1668,4.1572,4.1578,4.1582,4.1585,4.1866,4.187,0,0,0,0,0,0,4.1274,4.1289,4.1445,4.1451,4.1337,4.1401,4.1412,4.1452,4.1497,4.1501,4.1455,4.145,4.1536,4.1546,4.1556,4.1681,4.1579,4.1585,4.1589,4.1863,4.1867,4.1871,0,0,0,0,0,0,4.1269,4.1288,4.1441,4.1369,4.1388,4.1409,4.1454,4.1455,4.1481,4.1506,4.1509,4.1478,4.1534,4.1547,4.1633,4.1683,4.1588,4.1594,4.1858,4.1864,4.1869,4.1933,0,0,0,0,0,0,4.1263,4.1287,4.1329,4.1371,4.1392,4.1519,4.1457,4.1459,4.1493,4.1487,4.1528,4.1532,4.1532,4.1623,4.1639,4.169,4.1599,4.1854,4.1861,4.1867,4.1926,4.194,4.1951,0,0,0,0,0,4.1256,4.1344,4.1332,4.1351,4.1446,4.1522,4.1534,4.1534,4.1497,4.1539,4.1554,4.1531,4.1676,4.1633,4.165,4.1704,4.1851,4.1859,4.1867,4.192,4.1937,4.1951,0,0,0,0,0,0,4.1306,4.1349,4.1336,4.1441,4.1478,4.1515,4.1567,4.1552,4.1599,4.1592,4.1588,4.1598,4.1686,4.1704,4.1655,4.1808,4.1757,4.1769,4.1792,4.1808,4.182,4.1812,4.1605,0,0,0,0,0,4.133,4.1391,4.1424,4.1512,4.1532,4.1547,4.158,4.1577,4.1615,4.163,4.1652,4.1688,4.1741,4.1776,4.1827,4.193,4.1935,4.1975,4.1987,4.1998,4.2007,4.2058,4.2074,4.1897,4.1897,4.1897,0,0,4.1378,4.1409,4.1447,4.1523,4.1552,4.1611,4.156,4.1626,4.1669,4.1639,4.1721,4.1739,4.1778,4.1872,4.1914,4.1889,4.2057,4.2008,4.2016,4.2019,4.2068,4.2084,4.2099,4.1903,4.1902,4.1901,0,0,4.1496,4.1528,4.1603,4.1633,4.1678,4.1687,4.1705,4.1744,4.1755,4.1837,4.1815,4.1865,4.1958,4.1986,4.2013,4.214,4.2118,4.2156,4.222,4.227,4.2284,4.2296,4.2337,4.2352,4.2166,4.2166,4.2166,0,4.155,4.1642,4.1643,4.171,4.1742,4.172,4.1793,4.1822,4.188,4.1901,4.1874,4.1988,4.2013,4.2111,4.2142,4.2166,4.2183,4.215,4.2282,4.2294,4.2306,4.2344,4.236,4.217,4.217,4.2169,4.2169,0,4.1703,4.1767,4.1822,4.1879,4.1918,4.1988,4.1997,4.2036,4.2029,4.204,4.2122,4.2152,4.2207,4.2231,4.2225,4.2327,4.2309,4.2283,4.2231,4.2327,4.2363,4.2378,4.2176,4.2175,4.2173,4.2172,0,0,4.1854,4.1911,4.1931,4.1955,4.2002,4.205,4.2118,4.2172,4.2203,4.2244,4.2298,4.2377,4.2351,4.2381,4.2378,4.2423,4.2516,4.239,4.239,4.2408,4.2625,4.2642,4.2659,4.2503,4.2506,4.2509,4.262,0,4.1972,4.2092,4.2095,4.2204,4.226,4.2239,4.2297,4.2331,4.2343,4.239,4.2402,4.2456,4.2421,4.2438,4.2482,4.2496,4.2558,4.2488,4.2549,4.2551,4.2536,4.2679,4.2698,4.2801,4.2634,4.2637,4.2639,0,4.2125,4.2171,4.2286,4.2322,4.2346,4.2399,4.2447,4.2494,4.2531,4.2536,4.2569,4.2559,4.2624,4.2574,4.2662,4.2614,4.2639,4.2649,4.2653,4.2655,4.2598,4.2681,4.2835,4.2848,4.2662,4.266,4.2658,0,4.2218,4.2309,4.2388,4.2411,4.2456,4.2493,4.2513,4.2546,4.2578,4.262,4.264,4.2689,4.2715,4.2752,4.2753,4.2717,4.2841,4.2791,4.2843,4.2843,4.2867,4.2864,4.3022,4.2891,4.289,4.289,4.289,0,4.2347,4.2416,4.243,4.2479,4.2555,4.2557,4.2632,4.2648,4.2678,4.2727,4.2712,4.2758,4.276,4.2806,4.2808,4.2878,4.2891,4.2894,4.2893,4.2893,4.2892,4.2906,4.2897,4.2894,4.2893,4.2893,4.2892,0,4.2461,4.2474,4.2558,4.2595,4.2605,4.266,4.2689,4.2733,4.2744,4.2806,4.2821,4.2837,4.289,4.2896,4.2959,4.296,4.3042,4.3036,4.303,4.3028,4.3077,4.3071,4.3247,4.3268,4.3126,4.3128,4.3129,0,4.2541,4.2594,4.2636,4.2668,4.2691,4.2744,4.2776,4.2779,4.2812,4.2857,4.2895,4.2947,4.2988,4.3074,4.3089,4.3135,4.3127,4.3186,4.3134,4.3131,4.3122,4.3117,4.3121,4.3194,4.3196,4.3197,4.3198,0,4.2678,4.2682,4.273,4.278,4.2819,4.2858,4.2895,4.2922,4.2929,4.2967,4.3022,4.3054,4.3117,4.3167,4.3213,4.323,4.3214,4.3215,4.3228,4.3227,4.3219,4.3219,4.3053,4.321,4.3209,4.3208,4.3207,4.3207,4.2775,4.2819,4.2855,4.2908,4.2937,4.2971,4.3013,4.303,4.3076,4.3128,4.3127,4.3186,4.3218,4.3278,4.3299,4.3343,4.3323,4.3344,4.3349,4.3353,4.3355,4.3216,4.3352,4.3352,4.3351,4.3351,4.3351,0,4.2907,4.293,4.2979,4.3031,4.3071,4.3056,4.3095,4.3129,4.3182,4.3214,4.3256,4.3316,4.3365,4.3384,4.3431,4.3462,4.3455,4.3473,4.3469,4.3472,4.3373,4.3354,4.3478,4.3478,4.3478,4.3478,4.3478,4.3478,4.2981,4.3055,4.3062,4.3149,4.317,4.3228,4.3251,4.3282,4.3307,4.3376,4.3417,4.343,4.3456,4.3504,4.3546,4.355,4.3566,4.3587,4.3587,4.3493,4.348,4.3467,4.345,4.3591,4.3591,4.3682,4.3683,4.3684]},{"header":{"parameterUnit":"m.s-1","parameterCategory":1,"la1":30.2991,"la2":30.254,"lo1":-89.0895,"lo2":-89.0444,"dy":0.0017,"dx":0.0017,"nx":28,"ny":28,"refTime":"2024-07-15T09:00:00:Z","depth":0,"parameterNumber":3,"parameterNumberName":"V-component_of_WINDS"},"data":[0,0,0,0,0,0,0,0,0,0,0,0,0,0,0,0,0,0,0,0,0,0,0,0,0,0,0,0,0,0,0,0,0,0,0,0,0,0,0,0,0,0,0,0,0,0,0,0,0,0,0,0,0,0,0,0,0,0,3.9732,3.9734,0,3.9877,3.9879,3.9881,3.986,3.9858,3.9856,3.9853,4.0002,4.0009,4.0015,0,0,0,0,0,0,0,0,0,0,0,0,0,3.9436,3.9442,3.9732,3.9734,3.9736,3.9877,3.9879,3.9881,3.9861,3.9858,3.9855,3.9852,4.0,4.0008,4.0015,0,0,0,0,0,0,0,0,0,0,0,0,0,3.9571,3.9443,3.9732,3.9743,3.9745,3.9877,3.9879,3.9882,3.9861,3.9858,3.9854,3.9851,3.9998,4.0007,4.0016,4.0146,0,0,4.0045,4.0049,0,0,0,0,0,0,0,0,3.9564,3.9582,3.9739,3.9742,3.9745,3.9847,3.9829,3.997,3.9862,3.9817,3.9853,3.9849,3.9954,3.9966,4.0002,4.0153,4.016,4.0046,4.0051,4.0055,4.0058,0,0,0,0,0,0,0,3.9554,3.9576,3.979,3.9742,3.9745,3.974,3.9755,3.9856,3.9904,3.9821,3.982,3.9837,3.9955,3.9993,4.0005,4.0162,4.0045,4.0054,4.0059,4.0063,4.0425,4.0429,0,0,0,0,0,0,3.9542,3.9568,3.9785,3.9794,3.9644,3.9748,3.9765,3.9818,3.9903,3.9912,3.984,3.9836,3.9979,3.9994,4.001,4.0167,4.0055,4.0064,4.0069,4.0421,4.0426,4.043,0,0,0,0,0,0,3.9536,3.9562,3.9779,3.9681,3.9708,3.9757,3.9817,3.9823,3.9861,3.9917,3.9926,3.987,3.9976,3.9997,4.0112,4.0171,4.0068,4.0077,4.0416,4.0423,4.0428,4.0481,0,0,0,0,0,0,3.9527,3.956,3.961,3.9682,3.9713,3.9879,3.982,3.9828,3.9877,3.9873,3.9948,3.9957,3.9975,4.0098,4.0121,4.0182,4.0084,4.0411,4.0419,4.0426,4.0474,4.0488,4.05,0,0,0,0,0,3.9517,3.962,3.9613,3.9639,3.9778,3.9883,3.9901,3.9919,3.9882,3.9933,3.9968,3.9955,4.0161,4.011,4.0136,4.0201,4.0408,4.0417,4.0426,4.0469,4.0486,4.05,0,0,0,0,0,0,3.9554,3.963,3.9623,3.9752,3.9811,3.9879,3.9944,3.9937,4.0008,4.0001,4.0021,4.0038,4.0154,4.0189,4.0131,4.033,4.0279,4.0294,4.0303,4.032,4.0332,4.0321,4.0092,0,0,0,0,0,3.9578,3.9657,3.9718,3.9826,3.9856,3.9895,3.9941,3.995,4.0012,4.0037,4.0082,4.0143,4.0221,4.0272,4.0348,4.0479,4.0494,4.0536,4.0549,4.0559,4.0572,4.0642,4.0661,4.046,4.046,4.046,0,0,3.9627,3.9677,3.9727,3.9835,3.9882,3.9963,3.9916,4.0004,4.0064,4.0051,4.0162,4.0196,4.0265,4.0388,4.0445,4.0421,4.063,4.0571,4.0579,4.0586,4.0653,4.0672,4.0689,4.0466,4.0465,4.0464,0,0,3.9757,3.9804,3.9898,3.9946,4.0017,4.0041,4.0064,4.0133,4.0155,4.0266,4.0257,4.0328,4.0464,4.0512,4.0555,4.0701,4.069,4.0725,4.0792,4.086,4.0876,4.089,4.0941,4.0959,4.0737,4.0737,4.0737,0,3.9809,3.9931,3.9948,4.0036,4.0084,4.0074,4.0169,4.0214,4.0306,4.0339,4.0311,4.0478,4.0524,4.0658,4.0693,4.0728,4.0753,4.0716,4.0872,4.0887,4.09,4.0949,4.0968,4.0741,4.074,4.074,4.074,0,3.999,4.0075,4.0142,4.023,4.0285,4.0377,4.0406,4.046,4.0463,4.0491,4.0603,4.0657,4.0742,4.0775,4.078,4.0909,4.0891,4.0868,4.0817,4.0923,4.0968,4.0987,4.0746,4.0745,4.0743,4.0743,0,0,4.015,4.0244,4.0269,4.0308,4.0384,4.0449,4.0539,4.0622,4.0667,4.073,4.0805,4.0919,4.0896,4.0945,4.0955,4.1014,4.1124,4.0983,4.0985,4.1007,4.1268,4.1285,4.1306,4.1118,4.1121,4.1124,4.1262,0,4.0287,4.0446,4.0463,4.0605,4.0682,4.0672,4.0751,4.0805,4.0833,4.0902,4.0932,4.1011,4.0977,4.1005,4.1064,4.1099,4.1177,4.1089,4.1187,4.119,4.117,4.133,4.1349,4.1476,4.128,4.1283,4.1285,0,4.0468,4.0535,4.0685,4.0748,4.0781,4.0851,4.0927,4.0993,4.1055,4.107,4.1123,4.1124,4.1216,4.1161,4.1287,4.1227,4.1268,4.1291,4.1296,4.1306,4.1244,4.1343,4.1517,4.1536,4.1314,4.1311,4.1309,0,4.0568,4.0696,4.0801,4.0835,4.0912,4.0961,4.0995,4.1053,4.1101,4.1167,4.1198,4.1274,4.1316,4.1374,4.1396,4.1354,4.152,4.1468,4.1535,4.1534,4.157,4.1568,4.1752,4.1598,4.1597,4.1597,4.1597,0,4.0719,4.081,4.0846,4.0911,4.1013,4.103,4.113,4.1162,4.1213,4.1283,4.128,4.1346,4.1371,4.144,4.1458,4.1558,4.1578,4.1592,4.1595,4.1592,4.159,4.1619,4.1611,4.1602,4.1601,4.16,4.1599,0,4.0848,4.0876,4.099,4.1052,4.107,4.1142,4.1196,4.1258,4.1283,4.1372,4.1394,4.1434,4.1515,4.1542,4.1641,4.1653,4.177,4.1766,4.1749,4.1749,4.1814,4.1808,4.2024,4.2053,4.188,4.1881,4.1882,0,4.0942,4.1012,4.1081,4.1128,4.1163,4.1239,4.1287,4.1306,4.1356,4.143,4.1483,4.1563,4.1629,4.176,4.1797,4.1872,4.187,4.194,4.1881,4.1875,4.187,4.1865,4.1871,4.1952,4.1953,4.1955,4.1956,0,4.1105,4.1115,4.1185,4.1259,4.1316,4.1376,4.1433,4.1471,4.1498,4.1555,4.1638,4.1688,4.1788,4.1868,4.1944,4.1979,4.1972,4.1974,4.1993,4.1991,4.1977,4.1984,4.1778,4.1969,4.1968,4.1967,4.1966,4.1966,4.1219,4.128,4.1338,4.1415,4.1459,4.1513,4.1573,4.1605,4.1675,4.1757,4.1764,4.1853,4.1911,4.2012,4.2051,4.212,4.21,4.2128,4.2135,4.2142,4.2146,4.1966,4.2134,4.2134,4.2133,4.2133,4.2133,0,4.1382,4.1418,4.1488,4.1568,4.1628,4.1615,4.1677,4.1728,4.1807,4.1861,4.1924,4.2019,4.2095,4.2138,4.2215,4.2262,4.226,4.2281,4.2278,4.2285,4.216,4.2136,4.2281,4.2281,4.2281,4.2281,4.2281,4.2281,4.1473,4.1575,4.1591,4.1714,4.175,4.1836,4.1873,4.1921,4.1964,4.2069,4.2132,4.2159,4.2209,4.2288,4.2357,4.2368,4.2396,4.2419,4.2427,4.231,4.2294,4.228,4.2257,4.2425,4.2425,4.2546,4.2547,4.2548]}]]